Terminal Aerodrome Forecast
Issued by NWS

Home | Current Version | Previous Version | Graphics & Text | Print | Product List | Glossary On
Versions: 1 2 3 4 5 6 7 8 9 10 11 12 13 14 15 16 17 18 19 20 21 22 23 24 25 26 27 28 29 30 31 32 33 34 35 36 37 38 39 40 41 42 43 44 45 46 47 48 49 50
000
FTUS43 KLOT 010900 AAA
TAFGYY
TAF AMD
KGYY 010914Z 0109/0206 16007KT P6SM SCT120
     FM011400 21012G18KT P6SM VCTS SCT040CB BKN080
      TEMPO 0114/0118 VRB10G20KT 3SM SHRA SCT025 OVC035
     FM011800 23015G22KT P6SM VCSH SCT030 BKN040
     FM020000 24012KT P6SM VCSH SCT030 BKN040 PROB30 0200/0206 3SM
      TSRA SCT020 OVC040CB=

USA.gov is the U.S. government's official web portal to all federal, state and local government web resources and services.